DW7980 Weather Reports


time (UTC)temp
F
wind
direction
speed
knots
gust
knots
rain 1hr
in
rain 24hr
in
rain mn
in
humidity
%
barometer
mb
20260506015044 62 100 0.0 1.7 0.00 0.00 0.00 75 1015.8
20260506014542 62 0 0.0 0.0 0.00 0.00 0.00 76 1015.9
20260506014042 62 0 0.0 0.0 0.00 0.00 0.00 75 1015.9
20260506013541 62 0 0.0 0.0 0.00 0.00 0.00 75 1015.9
20260506013058 62 0 0.0 0.0 0.00 0.00 0.00 75 1015.9
20260506012539 62 0 0.0 0.0 0.00 0.00 0.00 74 1015.8
20260506012039 62 0 0.0 0.0 0.00 0.00 0.00 75 1015.9
20260506011604 62 0 0.0 0.0 0.00 0.00 0.00 74 1015.8
20260506011038 62 0 0.0 0.0 0.00 0.00 0.00 75 1015.9
20260506010539 62 0 0.0 0.0 0.00 0.00 0.00 74 1015.9
20260506010055 62 0 0.0 0.0 0.00 0.00 0.00 74 1015.8
20260506005540 63 0 0.0 0.0 0.00 0.00 0.00 75 1015.9
20260506005037 63 0 0.0 0.0 0.00 0.00 0.00 74 1015.9
20260506004543 63 0 0.0 0.0 0.00 0.00 0.00 75 1015.9
20260506004039 63 0 0.0 0.0 0.00 0.00 0.00 74 1015.9
20260506003537 63 0 0.0 0.0 0.00 0.00 0.00 73 1016.0
20260506003043 63 0 0.0 0.0 0.00 0.00 0.00 73 1016.0
20260506002536 63 0 0.0 0.0 0.00 0.00 0.00 74 1015.9
20260506002039 62 0 0.0 0.0 0.00 0.00 0.00 74 1016.0
20260506001553 62 0 0.0 0.0 0.00 0.00 0.00 75 1016.0
20260506001038 62 0 0.0 0.0 0.00 0.00 0.00 73 1016.0
20260506000539 63 0 0.0 0.0 0.00 0.00 0.00 74 1016.1
20260506000051 63 0 0.0 0.0 0.00 0.00 0.00 73 1016.1
20260505235539 63 0 0.0 0.0 0.00 0.00 0.00 76 1016.2
20260505235038 63 0 0.0 0.0 0.00 0.00 0.00 73 1016.2
20260505234546 63 0 0.0 0.0 0.00 0.00 0.00 73 1016.3
20260505234039 63 0 0.0 0.0 0.00 0.00 0.00 73 1016.3
20260505233538 63 0 0.0 0.0 0.00 0.00 0.00 73 1016.3
20260505233047 63 0 0.0 0.0 0.00 0.00 0.00 74 1016.2
20260505232538 63 0 0.0 0.0 0.00 0.00 0.00 73 1016.3
20260505232041 63 0 0.0 0.0 0.00 0.00 0.00 75 1016.3
20260505231607 63 0 0.0 0.0 0.00 0.00 0.00 74 1016.3
20260505231039 63 0 0.0 0.0 0.00 0.00 0.00 72 1016.4
20260505230537 63 0 0.0 0.0 0.00 0.00 0.00 73 1016.3
20260505230049 63 0 0.0 0.0 0.00 0.00 0.00 75 1016.4
20260505225539 63 0 0.0 0.0 0.00 0.00 0.00 73 1016.4
20260505225038 63 0 0.0 0.9 0.00 0.00 0.00 75 1016.4
20260505224554 63 0 0.0 1.7 0.00 0.00 0.00 76 1016.4
20260505224039 63 0 0.0 1.7 0.00 0.00 0.00 75 1016.5
20260505223538 62 190 0.0 1.7 0.00 0.00 0.00 74 1016.5
20260505223052 62 0 0.0 2.6 0.00 0.00 0.00 75 1016.5
20260505222542 62 190 0.0 2.6 0.00 0.00 0.00 74 1016.6
20260505222038 63 190 0.0 1.7 0.00 0.00 0.00 72 1016.6
20260505221553 63 129 0.0 1.7 0.00 0.00 0.00 74 1016.7
20260505221038 62 130 0.0 1.7 0.00 0.00 0.00 74 1016.6
20260505220539 62 0 0.0 1.7 0.00 0.00 0.00 73 1016.7
20260505220051 63 0 0.0 1.7 0.00 0.00 0.00 73 1016.6
20260505215538 63 129 0.0 1.7 0.00 0.00 0.00 74 1016.6
20260505215040 63 129 0.9 1.7 0.00 0.00 0.00 73 1016.6
20260505214554 63 91 0.0 1.7 0.00 0.00 0.00 74 1016.7
20260505214038 63 80 0.0 1.7 0.00 0.00 0.00 75 1016.6
20260505213538 63 0 0.0 1.7 0.00 0.00 0.00 76 1016.7
20260505213049 62 128 0.0 1.7 0.00 0.00 0.00 73 1016.7
20260505212538 62 190 0.0 1.7 0.00 0.00 0.00 74 1016.7
20260505212039 62 0 0.0 1.7 0.00 0.00 0.00 75 1016.7
20260505211549 62 105 0.0 2.6 0.00 0.00 0.00 75 1016.8
20260505211039 62 107 0.0 2.6 0.00 0.00 0.00 76 1016.8
20260505210539 62 220 0.0 2.6 0.00 0.00 0.00 75 1016.8
20260505210045 62 221 0.0 3.5 0.00 0.00 0.00 75 1016.8
20260505205541 62 181 0.9 3.5 0.00 0.00 0.00 77 1016.8
20260505205038 62 163 0.9 3.5 0.00 0.00 0.00 77 1016.8
20260505204548 61 184 0.9 4.3 0.00 0.00 0.00 76 1016.8
20260505204040 61 184 1.7 4.3 0.00 0.00 0.00 77 1016.9
20260505203543 61 247 1.7 4.3 0.00 0.00 0.00 76 1016.9
20260505203107 61 138 0.9 3.5 0.00 0.00 0.00 78 1016.9
20260505202539 61 112 0.9 4.3 0.00 0.00 0.00 77 1016.9
20260505202039 60 168 0.0 4.3 0.00 0.00 0.00 77 1016.9
20260505201603 60 0 0.9 3.5 0.00 0.00 0.00 77 1017.0
20260505201038 61 178 0.9 3.5 0.00 0.00 0.00 76 1017.0
20260505200539 61 0 0.0 3.5 0.00 0.00 0.00 77 1017.1
20260505200053 61 96 1.7 3.5 0.00 0.00 0.00 76 1017.0
20260505195542 60 202 0.0 2.6 0.00 0.00 0.00 78 1017.0
20260505195038 60 0 0.9 2.6 0.00 0.00 0.00 77 1017.1
20260505194548 60 0 0.0 2.6 0.00 0.00 0.00 78 1017.0
20260505194038 59 40 0.0 2.6 0.00 0.00 0.00 80 1017.0
20260505193537 59 0 0.0 3.5 0.00 0.00 0.00 79 1017.0
20260505193046 59 0 0.9 3.5 0.00 0.00 0.00 79 1017.0
20260505192538 59 179 0.0 0.0 0.00 0.00 0.00 79 1017.1
20260505192042 59 0 0.0 0.0 0.00 0.00 0.00 80 1017.0
20260505191550 59 0 0.0 0.0 0.00 0.00 0.00 80 1017.0
20260505191038 58 0 0.0 0.0 0.00 0.00 0.00 81 1017.0
20260505190539 58 0 0.0 0.0 0.00 0.00 0.00 80 1017.1
20260505190050 58 0 0.0 0.0 0.00 0.00 0.00 80 1017.1
20260505185537 58 0 0.0 0.0 0.00 0.00 0.00 81 1017.0
20260505185040 57 0 0.0 0.0 0.00 0.00 0.00 81 1017.1
20260505184549 57 0 0.0 0.0 0.00 0.00 0.00 82 1017.1
20260505184039 57 0 0.0 0.0 0.00 0.00 0.00 82 1017.2
20260505183542 57 0 0.0 0.0 0.00 0.00 0.00 81 1017.2
20260505183046 57 0 0.0 0.0 0.00 0.00 0.00 83 1017.2
20260505182538 57 0 0.0 0.0 0.00 0.00 0.00 84 1017.1
20260505182038 56 0 0.0 0.0 0.00 0.00 0.00 83 1017.1
20260505181547 56 0 0.0 0.9 0.00 0.00 0.00 83 1017.0
20260505181038 56 0 0.0 1.7 0.00 0.00 0.00 83 1017.0
20260505180540 56 0 0.0 1.7 0.00 0.00 0.00 83 1017.0
20260505180057 56 292 0.9 3.5 0.00 0.00 0.00 83 1017.0
20260505175539 56 0 0.0 3.5 0.00 0.00 0.00 83 1017.0
20260505175039 56 190 0.9 4.3 0.00 0.00 0.00 83 1017.1
20260505174546 56 170 0.0 4.3 0.00 0.00 0.00 83 1017.1
20260505174038 56 135 0.9 3.5 0.00 0.00 0.00 84 1017.0
20260505173537 56 0 0.0 2.6 0.00 0.00 0.00 84 1016.9
20260505173055 56 178 1.7 2.6 0.00 0.00 0.00 83 1017.0
20260505172538 56 196 0.0 3.5 0.00 0.00 0.00 84 1016.9
20260505172039 55 0 0.9 3.5 0.00 0.00 0.00 85 1016.8
20260505171550 55 0 0.0 2.6 0.00 0.00 0.00 85 1016.8
20260505171039 55 0 0.9 3.5 0.00 0.00 0.00 85 1016.9
20260505170540 55 0 0.9 3.5 0.00 0.00 0.00 86 1016.9
20260505170104 55 168 0.9 3.5 0.00 0.00 0.00 86 1016.8
20260505165538 54 0 0.9 3.5 0.00 0.00 0.00 86 1016.8
20260505165043 54 225 0.9 4.3 0.00 0.00 0.00 86 1016.7
20260505164550 54 184 1.7 4.3 0.00 0.00 0.00 86 1016.7
20260505164038 54 218 1.7 4.3 0.00 0.00 0.00 87 1016.7
20260505163538 54 0 0.0 0.0 0.00 0.00 0.00 87 1016.8
20260505163044 54 0 0.0 0.0 0.00 0.00 0.00 87 1016.7
20260505162538 54 0 0.0 0.0 0.00 0.00 0.00 87 1016.6
20260505162038 53 0 0.0 0.0 0.00 0.00 0.00 87 1016.6
20260505161612 53 0 0.0 0.9 0.00 0.00 0.00 87 1016.6
20260505161039 53 0 0.0 1.7 0.00 0.00 0.00 88 1016.6
20260505160538 53 0 0.0 1.7 0.00 0.00 0.00 88 1016.6
20260505153056 53 0 0.9 2.6 0.00 0.00 0.00 88 1016.7
20260505152538 53 196 0.0 1.7 0.00 0.00 0.00 88 1016.6
20260505152039 53 0 0.0 1.7 0.00 0.00 0.00 88 1016.6
20260505151603 53 0 0.0 1.7 0.00 0.00 0.00 88 1016.6
20260505151040 53 0 0.0 1.7 0.00 0.00 0.00 88 1016.6
20260505150542 53 0 0.0 0.9 0.00 0.00 0.00 88 1016.6
20260505140540 52 0 0.0 1.7 0.00 0.00 0.00 87 1016.0
20260505125040 53 0 0.0 0.9 0.00 0.00 0.00 86 1015.7
20260505124549 53 0 0.0 1.7 0.00 0.00 0.00 86 1015.7
20260505124038 53 0 0.0 1.7 0.00 0.00 0.00 86 1015.7
20260505123540 53 0 0.0 1.7 0.00 0.00 0.00 86 1015.8
20260505123051 53 0 0.0 1.7 0.00 0.00 0.00 86 1015.7
20260505122544 53 0 0.0 1.7 0.00 0.00 0.00 86 1015.7
20260505122038 53 0 0.0 0.9 0.00 0.00 0.00 86 1015.7
20260505121608 53 0 0.0 0.9 0.00 0.00 0.00 86 1015.8
20260505121039 53 0 0.0 0.9 0.00 0.00 0.00 86 1015.7
20260505120538 53 0 0.0 1.7 0.00 0.00 0.00 86 1015.6
20260505120048 53 0 0.0 1.7 0.00 0.00 0.00 86 1015.6
20260505115544 53 0 0.0 0.9 0.00 0.00 0.00 86 1015.6
20260505115038 53 0 0.0 3.5 0.00 0.00 0.00 86 1015.6
20260505114548 53 0 0.0 3.5 0.00 0.00 0.00 85 1015.6
20260505114041 53 0 0.0 2.6 0.00 0.00 0.00 85 1015.6
20260505113538 53 0 0.0 2.6 0.00 0.00 0.00 85 1015.6
20260505113047 53 0 0.0 1.7 0.00 0.00 0.00 85 1015.6
20260505112538 53 0 0.0 1.7 0.00 0.00 0.00 85 1015.5
20260505112039 53 0 0.0 2.6 0.00 0.00 0.00 85 1015.4
20260505111546 53 0 0.0 2.6 0.00 0.00 0.00 85 1015.4
20260505111040 53 192 0.0 2.6 0.00 0.00 0.00 85 1015.4
20260505110541 53 0 0.0 1.7 0.00 0.00 0.00 85 1015.3
20260505102038 53 0 0.0 1.7 0.00 0.00 0.00 85 1015.0
20260505101556 53 0 0.0 1.7 0.00 0.00 0.00 85 1015.0
20260505101038 53 0 0.0 1.7 0.00 0.00 0.00 85 1014.8
20260505100538 53 178 0.0 2.6 0.00 0.00 0.00 85 1014.7
20260505100048 53 0 0.0 2.6 0.00 0.00 0.00 85 1014.8
20260505095539 53 178 0.0 3.5 0.00 0.00 0.00 85 1014.8
20260505095039 53 0 0.9 3.5 0.00 0.00 0.00 85 1014.9
20260505094542 53 178 0.9 2.6 0.00 0.00 0.00 85 1014.8
20260505094038 53 0 0.0 2.6 0.00 0.00 0.00 85 1014.6
20260505093539 53 178 0.0 2.6 0.00 0.00 0.00 85 1014.6
20260505093050 53 202 0.9 2.6 0.00 0.00 0.00 85 1014.6
20260505092539 53 219 0.0 1.7 0.00 0.00 0.00 85 1014.6
20260505092038 53 0 0.0 1.7 0.00 0.00 0.00 85 1014.6
20260505091554 53 0 0.0 1.7 0.00 0.00 0.00 85 1014.5
20260505091038 53 219 0.0 2.6 0.00 0.00 0.00 84 1014.6
20260505090538 53 219 0.0 2.6 0.00 0.00 0.00 84 1014.5
20260505090059 53 0 0.9 2.6 0.00 0.00 0.00 84 1014.5
20260505085539 53 188 0.0 2.6 0.00 0.00 0.00 84 1014.5
20260505085039 53 190 0.0 2.6 0.00 0.00 0.00 84 1014.5
20260505084551 53 190 0.0 3.5 0.00 0.00 0.00 84 1014.6
20260505084038 54 216 0.9 4.3 0.00 0.00 0.00 84 1014.5
20260505083538 54 180 0.0 4.3 0.00 0.00 0.00 84 1014.5
20260505083056 54 179 0.9 3.5 0.00 0.00 0.00 83 1014.4
20260505082539 54 175 0.9 4.3 0.00 0.00 0.00 83 1014.4
20260505082039 54 236 0.9 4.3 0.00 0.00 0.00 83 1014.5
20260505081550 54 182 0.9 4.3 0.00 0.00 0.00 83 1014.5
20260505081038 54 215 0.9 4.3 0.00 0.00 0.00 84 1014.4
20260505080539 54 178 1.7 3.5 0.00 0.00 0.00 83 1014.4
20260505080048 54 0 0.0 2.6 0.00 0.00 0.00 84 1014.4
20260505075542 54 176 0.0 2.6 0.00 0.00 0.00 84 1014.4
20260505075039 54 214 0.0 2.6 0.00 0.00 0.00 84 1014.3
20260505074549 54 0 0.0 2.6 0.00 0.00 0.00 84 1014.3
20260505074038 54 0 0.9 2.6 0.00 0.00 0.00 83 1014.2
20260505073538 54 260 0.0 2.6 0.00 0.00 0.00 83 1014.1
20260505073048 54 178 0.0 2.6 0.00 0.00 0.00 83 1014.1
20260505072542 54 178 0.0 3.5 0.00 0.00 0.00 83 1014.1
20260505072039 54 178 0.0 3.5 0.00 0.00 0.00 82 1013.9
20260505071554 54 181 0.9 3.5 0.00 0.00 0.00 82 1013.8
20260505071038 55 0 0.0 2.6 0.00 0.00 0.00 82 1013.8
20260505070539 55 0 0.0 2.6 0.00 0.00 0.00 82 1013.6
20260505070051 55 0 0.0 5.2 0.00 0.00 0.00 82 1013.6
20260505065539 55 190 1.7 5.2 0.00 0.00 0.00 81 1013.6
20260505065038 55 180 0.9 5.2 0.00 0.00 0.00 81 1013.6
20260505064549 55 190 1.7 5.2 0.00 0.00 0.00 81 1013.4
20260505064038 56 0 0.9 5.2 0.00 0.00 0.00 81 1013.4
20260505063538 56 240 0.9 5.2 0.00 0.00 0.00 80 1013.4
20260505063052 56 211 1.7 6.1 0.00 0.00 0.00 80 1013.4
20260505062539 56 217 1.7 6.1 0.00 0.00 0.00 80 1013.4
20260505062039 56 180 0.9 6.1 0.00 0.00 0.00 80 1013.4
20260505061552 57 202 2.6 6.1 0.00 0.00 0.00 79 1013.3
20260505061038 57 222 0.9 4.3 0.00 0.00 0.00 80 1013.2
20260505060538 57 182 1.7 4.3 0.00 0.00 0.00 79 1013.3
20260505060056 58 184 0.9 3.5 0.00 0.00 0.00 80 1013.3
20260505055539 58 184 0.9 3.5 0.00 0.00 0.00 80 1013.3
20260505055038 58 0 0.9 2.6 0.00 0.00 0.00 80 1013.2
20260505054554 59 272 0.0 1.7 0.00 0.00 0.00 79 1013.2
20260505054038 59 272 0.0 1.7 0.00 0.00 0.00 79 1013.2
20260505053538 59 272 0.0 3.5 0.00 0.00 0.00 79 1013.1
20260505053105 60 0 0.0 3.5 0.00 0.00 0.00 78 1013.1
20260505052538 60 0 0.0 2.6 0.00 0.00 0.00 78 1013.0
20260505052039 60 0 0.0 4.3 0.00 0.00 0.00 78 1012.9
20260505051553 60 0 0.9 7.0 0.00 0.00 0.00 78 1012.9
20260505051039 60 225 0.9 7.0 0.00 0.00 0.00 78 1012.9
20260505050539 61 196 0.9 3.5 0.00 0.00 0.00 78 1012.9
20260505041553 63 173 0.9 2.6 0.00 0.00 0.00 77 1012.1
20260505041039 62 180 0.9 3.5 0.00 0.00 0.00 78 1012.0
20260505040539 62 0 0.9 3.5 0.00 0.00 0.00 79 1012.0
20260505040050 63 240 0.9 3.5 0.00 0.00 0.00 79 1011.9
20260505035539 63 0 0.0 2.6 0.00 0.00 0.00 79 1011.8
20260505035041 63 0 0.9 2.6 0.00 0.00 0.00 79 1011.7
20260505034550 63 175 0.9 2.6 0.00 0.00 0.00 79 1011.7
20260505034039 63 172 0.0 1.7 0.00 0.00 0.00 79 1011.5
20260505033540 64 172 0.0 1.7 0.00 0.00 0.00 78 1011.6
20260505033110 64 172 0.0 1.7 0.00 0.00 0.00 78 1011.4
20260505032537 64 172 0.0 1.7 0.00 0.00 0.00 77 1011.5
20260505032039 65 0 0.0 1.7 0.00 0.00 0.00 77 1011.4
20260505031552 65 172 0.0 1.7 0.00 0.00 0.00 76 1011.2
20260505031042 65 0 0.0 0.9 0.00 0.00 0.00 76 1011.2
20260505030539 65 0 0.0 1.7 0.00 0.00 0.00 76 1011.2
20260505030052 66 0 0.0 2.6 0.00 0.00 0.00 75 1011.2
20260505025538 66 172 0.0 2.6 0.00 0.00 0.00 75 1011.1
20260505025040 66 172 0.9 4.3 0.00 0.00 0.00 75 1011.1
20260505024600 66 172 0.9 4.3 0.00 0.00 0.00 74 1011.1
20260505024039 66 171 0.9 4.3 0.00 0.00 0.00 74 1011.1
20260505023538 66 168 0.9 4.3 0.00 0.00 0.00 74 1011.1
20260505023059 67 258 0.0 4.3 0.00 0.00 0.00 74 1011.1
20260505022539 67 258 0.9 4.3 0.00 0.00 0.00 73 1011.1
20260505022042 67 0 0.9 4.3 0.00 0.00 0.00 73 1011.0
20260505021557 67 206 0.9 4.3 0.00 0.00 0.00 73 1011.0
20260505021038 67 185 0.9 3.5 0.00 0.00 0.00 73 1011.1
20260505020538 67 221 0.9 3.5 0.00 0.00 0.00 72 1011.1
20260505020055 67 210 0.0 3.5 0.00 0.00 0.00 73 1011.1
20260505015538 67 227 0.0 3.5 0.00 0.00 0.00 73 1011.0